Weather Roundup
Issued by NWS Springfield, MO

Home | Current Version | Previous Version | Text Only | Print | Product List | Glossary On
Versions: 1 2 3 4 5 6 7 8 9 10 11 12 13 14 15 16 17 18 19 20 21 22 23 24 25 26 27 28 29 30 31 32 33 34 35 36 37 38 39 40 41 42 43 44 45 46 47 48 49 50
914
NZUS99 KSGF 281107
HRRSGF

HOURLY WEATHER
NATIONAL WEATHER SERVICE SPRINGFIELD MO
600 AM CDT SAT MAY 28 2016

......SGF CWA......

CITY           SKY/WX    TMP DP  RH WIND       PRES   REMARKS
SPRINGFIELD    CLOUDY    63  60  90 S9        29.85R
JOPLIN         CLEAR     63  61  93 S12       29.83R
WEST PLAINS    CLOUDY    66  62  87 S7        29.92R
ROLLA          PTCLDY    64  62  93 S8        29.85R

......SURROUNDING SGF CWA......

CITY           SKY/WX    TMP DP  RH WIND       PRES   REMARKS
CHANUTE        CLEAR     63  60  90 S13       29.78R
PARSONS        PTCLDY    63  62  97 S8        29.80R
COFFEYVILLE    PTCLDY    65  62  90 S15       29.80R
EMPORIA        CLEAR     58  57  97 S8        29.74S
GROVE OK       PTCLDY    63  61  94 S5        29.86R
ROGERS AR        N/A     60  59  96 S3        29.88R
SILOAM SPRINGS CLEAR     59  52  77 SW5       29.88R
HARRISON AR    PTCLDY    61  59  93 SE7       29.88R
NEAR YELLVILLE CLOUDY   N/A N/A N/A CALM      29.85R

......KANSAS AND MISSOURI......

CITY           SKY/WX    TMP DP  RH WIND       PRES   REMARKS
KANSAS CTY INT CLOUDY    59  57  93 SE7       29.77F
DOWNTOWN KC    CLOUDY    62  58  86 SE5       29.78R
COLUMBIA       CLEAR     65  64  97 S12       29.83R
SEDALIA        CLOUDY    63  60  90 S9        29.82R
ST JOSEPH      MOCLDY    60  58  92 S3        29.76S
ST LOUIS       CLOUDY    69  64  84 S10       29.88S
SPIRIT OF STL  CLOUDY    68  65  90 S9        29.86R
KIRKSVILLE     PTCLDY    64  63  96 S9        29.80R
WICHITA        MOCLDY    58  55  90 W8        29.78R
TOPEKA         CLOUDY    60  58  92 E7        29.74F
OLATHE         CLOUDY    58  57  97 E5        29.78S

......TENNESSEE......

CITY           SKY/WX    TMP DP  RH WIND       PRES   REMARKS
MEMPHIS        CLOUDY    71  65  81 S6        29.96R
NASHVILLE      CLOUDY    73  63  70 SE7       30.04R

......ARKANSAS.......

CITY           SKY/WX    TMP DP  RH WIND       PRES   REMARKS
FAYETTEVILLE   CLEAR     58  58 100 SW5       29.87R
FT SMITH       CLEAR     62  59  90 CALM      29.87R
LITTLE ROCK    MOCLDY    65  62  90 S8        29.92R

......OKLAHOMA.......

CITY           SKY/WX    TMP DP  RH WIND       PRES   REMARKS
TULSA          MOCLDY    67  64  90 S12       29.83R
PONCA CITY     CLEAR     60  53  77 SW8       29.81R
MCALESTER      CLOUDY    68  62  81 S6        29.88R
OKLAHOMA CITY  PTCLDY    60  60 100 S6        29.86R

......IOWA............

CITY           SKY/WX    TMP DP  RH WIND       PRES   REMARKS
DES MOINES     CLOUDY    63  59  87 SE3       29.73F
QUAD CITIES    MOCLDY    69  64  84 SW7       29.79R

......ILLINOIS........

CITY           SKY/WX    TMP DP  RH WIND       PRES   REMARKS
QUINCY         CLOUDY    68  65  90 S12       29.82R
CHICAGO        CLOUDY    70  64  81 S17       29.85S




USA.gov is the U.S. government's official web portal to all federal, state and local government web resources and services.